Regional Weather Roundup
Issued by NWS

Home | Current Version | Previous Version | Graphics & Text | Print | Product List | Glossary On
Versions: 1 2 3 4 5 6 7 8 9 10 11 12 13 14 15 16 17 18 19 20 21 22 23 24 25 26 27 28 29 30 31 32 33 34 35 36 37 38 39 40 41 42 43 44 45 46 47 48 49 50
000
ASUS43 KMKX 081821
RWRWI

WISCONSIN REGIONAL WEATHER ROUNDUP
NATIONAL WEATHER SERVICE MILWAUKEE/SULLIVAN WI
1200 PM CST MON FEB 08 2016

NOTE: "FAIR" INDICATES FEW OR NO CLOUDS BELOW 12,000 FEET WITH NO
SIGNIFICANT WEATHER AND/OR OBSTRUCTIONS TO VISIBILITY.

WIZ001-002-006>008-014>016-023>028-081900-
NORTHWEST WISCONSIN

CITY           SKY/WX    TMP DP  RH WIND       PRES   REMARKS
SUPERIOR ARPT  CLOUDY    13   3  65 NW15G21   29.92S WCI  -3
6HR MIN TEMP:  11; 6HR MAX TEMP:  13;

ASHLAND        SNOW      17  13  84 NW7       29.84S VSB 1/2 WCI   8
6HR MIN TEMP:  17; 6HR MAX TEMP:  20; 6HR PCP: TRACE;

HAYWARD        LGT SNOW  13   6  74 VRB5G16   29.83S WCI   5
6HR MIN TEMP:  12; 6HR MAX TEMP:  13; 6HR PCP: TRACE;

SIREN          LGT SNOW  13   4  65 NW14G22   29.90F WCI  -2
6HR MIN TEMP:  10; 6HR MAX TEMP:  13;

CUMBERLAND     FLURRIES  12   3  67 N14       29.85S WCI  -3
RICE LAKE      FLURRIES  13   5  70 NW12G17   29.87S WCI  -1
6HR MIN TEMP:  13; 6HR MAX TEMP:  14;

CHETEK         LGT SNOW  13   6  72 NW12      29.85S WCI   0
6HR MIN TEMP:  12; 6HR MAX TEMP:  14;

LADYSMITH      FLURRIES  18  10  73 NW15      29.81R WCI   3
6HR MIN TEMP:  15; 6HR MAX TEMP:  18;

EAU CLAIRE     CLOUDY    16   5  62 NW15      29.85R WCI   1
6HR MIN TEMP:  14; 6HR MAX TEMP:  16; 6HR PCP: TRACE;

MENOMONIE      LGT SNOW  17   6  64 NW16      29.88R WCI   1
6HR MIN TEMP:  14; 6HR MAX TEMP:  17;

NEW RICHMOND   CLOUDY    13   4  66 NW20G26   29.91S WCI  -5
6HR MIN TEMP:  11; 6HR MAX TEMP:  13;

OSCEOLA        CLOUDY    14   4  63 NW13G24   29.95F WCI   0
6HR MIN TEMP:  11; 6HR MAX TEMP:  14;

$$

WIZ003>005-009-010-017-018-081900-
NORTH CENTRAL WISCONSIN

CITY           SKY/WX    TMP DP  RH WIND       PRES   REMARKS
MANITOWISH WTR LGT SNOW  17  13  82 N12       29.71S WCI   4
6HR MIN TEMP:  17; 6HR MAX TEMP:  20;

ARBOR VITAE    FLURRIES  22  15  76 N13G18    29.69S WCI  10
6HR MIN TEMP:  20; 6HR MAX TEMP:  23;

WOODRUFF       FLURRIES  22  15  76 N13G18    29.69S WCI  10
6HR MIN TEMP:  20; 6HR MAX TEMP:  23;

RHINELANDER    CLOUDY    22  15  75 NW10      29.67F WCI  11
6HR MIN TEMP:  20; 6HR MAX TEMP:  25; 6HR PCP: TRACE;

EAGLE RIVER    LGT SNOW  20  12  70 N10       29.67S WCI   9
LAND O LAKES   FLURRIES  20  13  75 N10       29.68F WCI   9
6HR MIN TEMP:  19; 6HR MAX TEMP:  21;

PHILLIPS       FLURRIES  18  12  76 N8G16     29.74R WCI   8
6HR MIN TEMP:  17; 6HR MAX TEMP:  22;

TOMAHAWK       CLOUDY    21  15  76 NW8       29.70S WCI  11
6HR MIN TEMP:  20; 6HR MAX TEMP:  24;

MEDFORD        CLOUDY    18  14  83 NW14      29.71R WCI   4
6HR MIN TEMP:  17; 6HR MAX TEMP:  19;

MERRILL        CLOUDY    22  18  83 N8G22     29.70S WCI  13
6HR MIN TEMP:  22; 6HR MAX TEMP:  26;

$$

WIZ029-030-035-036-043>047-081900-
CENTRAL WISCONSIN

CITY           SKY/WX    TMP DP  RH WIND       PRES   REMARKS
WAUSAU         CLOUDY    26  18  71 N9        29.67R WCI  17
6HR MIN TEMP:  24; 6HR MAX TEMP:  27;

MOSINEE        CLOUDY    27  19  74 N14G20    29.69R WCI  15
MARSHFIELD     CLOUDY    19  11  70 NW17      29.71R WCI   4
6HR MIN TEMP:  18; 6HR MAX TEMP:  20;

STEVENS POINT  CLOUDY    25  17  70 N10       29.68S WCI  15
6HR MIN TEMP:  19; 6HR MAX TEMP:  26;

WAUPACA        CLOUDY    32  22  66 W9        29.66F WCI  24
6HR MIN TEMP:  26; 6HR MAX TEMP:  32;

WAUTOMA        LGT SNOW  25  19  80 NW14G20   29.69S WCI  13
6HR MIN TEMP:  22; 6HR MAX TEMP:  26; 6HR PCP: TRACE;

WISC RAPIDS    CLOUDY    22  13  68 NW12      29.72S WCI  10
6HR MIN TEMP:  20; 6HR MAX TEMP:  22;

CAMP DOUGLAS   CLOUDY    19  18  93 NW13      29.75R WCI   7
                                      6HR PCP:  0.01;

$$

WIZ011>013-019>022-031-037>040-048>050-081900-
NORTHEAST WISCONSIN

CITY           SKY/WX    TMP DP  RH WIND       PRES   REMARKS
ANTIGO         CLOUDY    21  16  79 N16G22    29.65S WCI   7
6HR MIN TEMP:  21; 6HR MAX TEMP:  25;

SHAWANO        CLOUDY    33  24  70 NW9       29.65S WCI  25
6HR MIN TEMP:  32; 6HR MAX TEMP:  34;

OCONTO         CLOUDY    30  30 100 N15       29.64R WCI  19
6HR MIN TEMP:  30; 6HR MAX TEMP:  33;

STURGEON BAY   CLOUDY    30  27  86 N17       29.64S WCI  18
6HR MIN TEMP:  32; 6HR MAX TEMP:  34;

GREEN BAY      LGT SNOW  32  26  78 NW10      29.63S WCI  24
6HR MIN TEMP:  30; 6HR MAX TEMP:  32; 6HR PCP:  0.01;

MANITOWOC      FLURRIES  32  26  78 W9        29.63F WCI  24
6HR MIN TEMP:  31; 6HR MAX TEMP:  33; 6HR PCP: TRACE;

APPLETON       FLURRIES  27  21  80 W14       29.62F WCI  15
CLINTONVILLE   CLOUDY    32  23  69 NW12      29.65S WCI  23
OSHKOSH        CLOUDY    26  19  74 W13       29.65S WCI  15
6HR MIN TEMP:  24; 6HR MAX TEMP:  27;

$$

WIZ032>034-041-042-053>061-081900-
SOUTHWEST WISCONSIN

CITY           SKY/WX    TMP DP  RH WIND       PRES   REMARKS
LA CROSSE      CLOUDY    19   9  65 NW17      29.83R WCI   4
6HR MIN TEMP:  17; 6HR MAX TEMP:  19; 6HR PCP: TRACE;

SPARTA         CLOUDY    19  11  72 NW14G21   29.80S WCI   6
6HR MIN TEMP:  17; 6HR MAX TEMP:  19;

VIROQUA        CLOUDY    19  11  73 NW15      29.75S WCI   4
6HR MIN TEMP:  15; 6HR MAX TEMP:  19;

BOSCOBEL       CLOUDY    22  12  65 N10G18    29.79S WCI  11
6HR MIN TEMP:  19; 6HR MAX TEMP:  22; 6HR PCP: TRACE;

PRAIRIE DU CHI CLOUDY    21  10  62 NW18G25   29.81S WCI   6
6HR MIN TEMP:  18; 6HR MAX TEMP:  21;

PLATTEVILLE    CLOUDY    21  15  76 NW15      29.74S WCI   8
6HR MIN TEMP:  17; 6HR MAX TEMP:  21;

$$

WIZ056-057-062-063-064-067-068-081900-
SOUTH CENTRAL WISCONSIN

CITY           SKY/WX    TMP DP  RH WIND       PRES   REMARKS
REEDSBURG      CLOUDY    21  14  75 NW10      29.72F WCI   9
6HR MIN TEMP:  18; 6HR MAX TEMP:  21;

BARABOO/DELLS  CLOUDY    21  13  71 N12G22    29.71S WCI  10
6HR MIN TEMP:  19; 6HR MAX TEMP:  22;

LONE ROCK      CLOUDY    22  12  65 NW10G22   29.76R WCI  11
6HR MIN TEMP:  20; 6HR MAX TEMP:  22; 6HR PCP: TRACE;

MINERAL POINT  CLOUDY    23  16  74 NW16G22   29.72S WCI  10
MADISON        CLOUDY    23  15  71 NW13G20   29.70S WCI  11
6HR MIN TEMP:  21; 6HR MAX TEMP:  25; 6HR PCP: TRACE;

MIDDLETON      CLOUDY    25  17  73 NW13      29.70F WCI  13
6HR MIN TEMP:  22; 6HR MAX TEMP:  26;

WATERTOWN      FLURRIES  24  19  82 NW10      29.67F WCI  14
6HR MIN TEMP:  23; 6HR MAX TEMP:  28;

MONROE         CLOUDY    25  18  74 NW10G18   29.69S WCI  15
JANESVILLE     CLOUDY    27  18  69 NW12      29.69S WCI  16
$$

WIZ051-052-058>065-066-070>072-081900-
SOUTHEAST WISCONSIN

CITY           SKY/WX    TMP DP  RH WIND       PRES   REMARKS
MILWAUKEE      CLOUDY    28  22  78 NW12      29.64F WCI  18
6HR MIN TEMP:  27; 6HR MAX TEMP:  34; 6HR PCP:  0.14;

WAUKESHA       CLOUDY    23  18  80 W14       29.66S WCI  11
MILWAUKEE/TIMM CLOUDY    27  19  74 NW16      29.66S WCI  14
RACINE         LGT SNOW  28  21  75 NW15      29.66S WCI  16
6HR MIN TEMP:  28; 6HR MAX TEMP:  33; 6HR PCP: TRACE;

BURLINGTON     CLOUDY    24  19  78 NW13      29.67S WCI  13
6HR MIN TEMP:  24; 6HR MAX TEMP:  29;

KENOSHA        CLOUDY    28  22  78 NW14      29.65S WCI  17
6HR MIN TEMP:  28; 6HR MAX TEMP:  32; 6HR PCP: TRACE;

FOND DU LAC    MIX PCPN  26  19  74 NW13      29.66S WCI  15
6HR MIN TEMP:  25; 6HR MAX TEMP:  29; 6HR PCP: TRACE;

SHEBOYGAN      LGT SNOW  27  21  78 NW13      29.63F WCI  16
6HR MIN TEMP:  26; 6HR MAX TEMP:  31; 6HR PCP: TRACE;

WEST BEND      FLURRIES  27  19  74 NW10      29.64F WCI  17
JUNEAU         CLOUDY    23  17  78 NW8G16    29.68S WCI  14
6HR MIN TEMP:  21; 6HR MAX TEMP:  28;

$$

LSZ147-162-081900-
LAKE SUPERIOR

STATION/POSITION TIME  TEMP    WIND        PRES    WAVE
                       AIR SEA DIR/SP/G            HT/PER
                 (UTC) (F)     (DEG/KT/KT) (MB)    (FT/S)
DEVILS ISLAND    1800   15     320/ 16/ 20 1012.1R
PORT WING        1700   17     320/ 17/ 21 1011.9R
SAXON HARBOR     1700   19                 1009.8R
$$

LMZ867-665-643>646-081900-
LAKE MICHIGAN

STATION/POSITION TIME  TEMP    WIND        PRES    WAVE
                       AIR SEA DIR/SP/G            HT/PER
                 (UTC) (F)  C1F1C2F2C3F3C4F4C5F5C6F6C7F7C8M1C9M2Ca!


USA.gov is the U.S. government's official web portal to all federal, state and local government web resources and services.